NOAA 16 DEB, 41080

Orbit data source: Space-Track

NOAA 16 DEB, 41080 is space debris in SSO originally from a launch on Thu, 21 Sep 2000 UTC launched from the Air Force Western Test Range (AFWTR). Debris objects in space refer to the collection of defunct objects orbiting the Earth. Examples of debris include non-operational satellites, rocket bodies, and fragments generated from explosions, collisions, or faulty payload assembly.

Loading next visibility...
Identifier
41080, 2000-055AP
Orbit
SSO
Last TLE update
1 day ago
Origin
Manufacturer
Unknown
Mission
Spacecraft
Bus & Motor
Unknown
Mass
Unknown
Launch date (UTC)
2000-09-21 (25 years ago)
Launch vehicle
Unknown
Launch site
Air Force Western Test Range (AFWTR)
Object type
Payload
Rocket body
Debris
Shape & HBR
Unknown
Radar Cross Section
Small (<0.1 m²)

Expand to show TLE details & history

TLE from 1 day ago
0 NOAA 16 DEB
1 41080U 00055AP  25185.84875788 -.00000882  00000-0 -37943-3 0  9998
2 41080  98.5588 234.1241 0008926 149.3448 210.8254 14.22042160495498
Epoch: 2025-07-04T20:22Z
TLE epoch observation values (Epoch: 2025-07-04T20:22:12.68Z)
Latitude
0.00004°
Longitude
5.476°
Altitude
826.896 km
Speed
7.437 km/s
True Right ascension
15h 36m 29s
True Declination
0° 00' 00"
Sunlit
Object was in full shadow at epoch
Visualization orbit readout
Latitude
-45.18878°
Longitude
177.87569°
Altitude
834.686 km
Speed
7.435 km/s
Apparent Right ascension
00h 56m 45s
Apparent Declination
-47° 35' 02"
Sunlit
Object is in daylight
Visualization observer readout
Local Sidereal Time
10:41:40
Azimuth
241.161° WSW
Elevation
-64.658°
Doppler factor
1
Orbital elements
Apogee altitude
822.024 km
Perigee altitude
809.182 km
Semi-major axis
7,193.74 km
Eccentricity
0.00089
Inclination
98.5588°
RAAN
234.1241°
Arg. of periapsis
149.3448°
True anomaly
Unknown
Mean anomaly
210.8254°
Eccentric anomaly
Unknown
Mean motion
3.55722 °/min
Orbital period
101.2 mins
BSTAR
-0.00037943
Loading maneuver chart data...
Loading SW <> Apogee altitude chart data...
Loading historical data...
Loading historical data...
Loading historical data...
Loading historical data...
Loading historical data...
Loading historical data...
Loading historical data...

NOAA 16 DEB Visibility forecast

Observer location: undefined°, undefined°

Span
Click to sort rows by Start time (UTC) header in descending order
Start Az.
Max El. time (UTC)
Max El. Az.
Max El.
End time (UTC)
End Az.
10 mins2025-07-06 02:52:25.729Z152.292° SSE2025-07-06 02:57:25.729Z83.63° E41.409°2025-07-06 03:02:25.729Z354.479° N
4 mins2025-07-06 04:36:25.729Z247.979° W2025-07-06 04:38:25.729Z273.617° WNW15.1°2025-07-06 04:40:25.729Z297.713° NW
6 mins2025-07-06 15:12:25.729Z54.923° ENE2025-07-06 15:15:25.729Z103.411° ESE23.454°2025-07-06 15:18:25.729Z144.133° SSE
8 mins2025-07-06 16:51:25.729Z350.511° N2025-07-06 16:55:25.729Z282.006° WNW31.159°2025-07-06 16:59:25.729Z227.213° WSW
|